Flag for Canada Weather past 2 weeks in Kamloops, British Columbia, Canada

Now
70 °F

Passing clouds.


Feels Like: 70 °F
Forecast: 61 / 86 °F
Wind: 7 mph from West

Location: Kamloops

Current Time: Jul 1, 2015 at 8:55:16 AM

Latest Report: Jul 1, 2015 at 8:00 AM


Visibility: 40 mi

Pressure: 30.16 "Hg

Humidity: 60%

Dew point: 55 °F

Location of KamloopsLocation

Historic Weather in Kamloops — Graph

°F

Kamloops temperature yesterday

Maximum temperature yesterday: 90 °F (at 2:53 PM)
Minimum temperature yesterday: 63 °F (at 3:00 AM)
Average temperature yesterday: 71 °F

Past Weeks' High & Low Weather Summary

 TemperatureHumidityPressure
High100 °F (Jun 27, 5:00 PM)94% (Jun 30, 12:00 AM)30.16 "Hg (Jun 30, 12:00 AM)
Low48 °F (Jun 21, 1:00 AM)12% (Jun 27, 5:00 PM)29.75 "Hg (Jun 18, 6:00 PM)
Average72 °F47%29.96 "Hg
* Reported Jun 16 8:00 AM — Jul 1 8:00 AM, Kamloops, Weather by CustomWeather, © 2015

Note: Actual official high and low records may vary slightly from our data, if they occured in-between our weather recording intervals... More about our weather records

Advertising

Kamloops weather history for previous 24 hours

 ConditionsComfort  
Time TempWeatherWind HumidityBarometerVisibility
8:00 AM
Wed, Jul 1
70 °FPassing clouds.7 mph60%30.16 "Hg40 mi
7:00 AM66 °FPassing clouds.3 mph68%30.15 "Hg40 mi
6:00 AM64 °FPassing clouds.2 mph73%30.15 "Hg40 mi
5:00 AM64 °FPartly cloudy.2 mph78%30.14 "Hg40 mi
4:00 AM66 °FPassing clouds.13 mph73%30.13 "Hg40 mi
3:00 AM66 °FPassing clouds.7 mph78%30.11 "Hg40 mi
2:00 AM66 °FLight rain. Passing clouds.12 mph78%30.11 "Hg40 mi
1:00 AM68 °FPassing clouds.14 mph69%30.11 "Hg40 mi
12:00 AM68 °FPassing clouds.7 mph73%30.10 "Hg40 mi
11:00 PM
Tue, Jun 30
68 °FPassing clouds.8 mph78%30.09 "Hg40 mi
10:00 PM70 °FPartly sunny.3 mph73%30.08 "Hg40 mi
9:00 PM70 °FBroken clouds.No wind78%30.06 "Hg40 mi
8:00 PM70 °FBroken clouds.2 mph83%30.01 "Hg40 mi
7:00 PM70 °FThunderstorms. Partly sunny.7 mph83%29.96 "Hg40 mi
6:00 PM72 °FThunderstorms. Partly sunny.3 mph69%29.94 "Hg40 mi
5:00 PM72 °FPartly sunny.14 mph65%29.93 "Hg40 mi
4:00 PM72 °FThunderstorms. Broken clouds.14 mph57%29.93 "Hg40 mi
3:00 PM90 °FThunderstorms. Broken clouds.9 mph33%29.91 "Hg40 mi
2:53 PM90 °FThunderstorms. Broken clouds.8 mph33%29.91 "Hg40 mi
2:00 PM88 °FScattered clouds.7 mph33%29.95 "Hg40 mi
1:00 PM82 °FPassing clouds.5 mph45%29.98 "Hg40 mi
12:00 PM81 °FPassing clouds.5 mph51%30.02 "Hg40 mi
11:00 AM75 °FPassing clouds.5 mph61%30.04 "Hg40 mi
10:00 AM72 °FPassing clouds.5 mph69%30.06 "Hg40 mi
9:00 AM68 °FPassing clouds.3 mph78%30.08 "Hg40 mi
8:00 AM66 °FPassing clouds.No wind83%30.09 "Hg40 mi
Weather by CustomWeather, © 2015

See weather overviewHow to use our weather pages